Location: Betpouey
(42.8833°N, 0.0333°E)
Time: 05:02:11
(UTC+00:00)

Meteor 2-13 Rocket - Pass Details

Date: 24 June 2021
Orbit: 935 x 958 km, 82.5° (Epoch: 26 July)

Event Time Altitude Azimuth Distance (km) Brightness Sun altitude
Exits shadow 01:30:39 20° 254° (WSW) 2,067 5.9 -20.7°
Maximum altitude 01:33:16 26° 290° (WNW) 1,789 5.8 -20.5°
Drops below altitude 10° 01:38:20 10° 346° (NNW) 2,698 7.5 -20.1°
Sets 01:41:19 0° 359° (N) 3,647 8.6 -19.9°
